Weather History for KPSO - February, 2013

Change the Weather History Date:

Friday, February 8, 2013

  Actual Average (KDRO) Record (KDRO)
Temperature  
Mean Temperature 30 °F 27 °F  
Max Temperature 44 °F 41 °F 60 °F (1970)
Min Temperature 16 °F 13 °F -6 °F (1974)
Degree Days  
Heating Degree Days 35 38  
Month to date heating degree days 313  
Since 1 July heating degree days 4467  
Cooling Degree Days 0 0  
Month to date cooling degree days 0  
Year to date cooling degree days 0  
Moisture  
Dew Point 17 °F    
Average Humidity 57    
Maximum Humidity 82    
Minimum Humidity 30    
Precipitation  
Precipitation 0.00 in 0.05 in 0.83 in (2001)
Month to date precipitation 0.32  
Year to date precipitation 1.44  
Sea Level Pressure  
Sea Level Pressure 29.94 in    
Wind  
Wind Speed 3 mph (South)    
Max Wind Speed 22 mph    
Max Gust Speed 28 mph    
Visibility 10 miles    
Events      
T = Trace of Precipitation, MM = Missing Value Source: NWS Daily Summary

Daily Weather History Graph

Daily Weather History Graph

Search for Another Location

Airport or City:

Trip Planner

Search our weather history database for the weather conditions in past years. The results will help you decide how hot, cold, wet, or windy it might be!

Date:

Astronomy

Feb. 08, 2013 Rise Set
Actual Time 7:04 AM MST 5:40 PM MST
Civil Twilight 6:37 AM MST 6:07 PM MST
Nautical Twilight 6:06 AM MST 6:38 PM MST
Astronomical Twilight 5:36 AM MST 7:09 PM MST
Moon 5:34 AM MST (2/8) 4:18 PM MST (2/8)
Length of Visible Light 11h 30m
Length of Day
10h 36m
Waning Crescent, 3% of the Moon is Illuminated
Feb 8
Waning Crescent
Feb 10
New
Feb 17
First Quarter
Feb 25
Full
Mar 4
Last Quarter

Hourly Weather History & Observations

Time (MST) Temp. Windchill Dew Point Humidity Pressure Visibility Wind Dir Wind Speed Gust Speed Precip Events Conditions
12:15 AM 18.3 °F - 11.3 °F 74% 30.13 in 10.0 mi Calm Calm - N/A   Clear
12:35 AM 19.8 °F - 10.8 °F 68% 30.14 in 10.0 mi Calm Calm - N/A   Clear
12:55 AM 16.0 °F - 11.1 °F 81% 30.13 in 10.0 mi Calm Calm - N/A   Clear
1:15 AM 18.7 °F - 13.5 °F 80% 30.12 in 10.0 mi Calm Calm - N/A   Clear
1:35 AM 16.7 °F - 11.1 °F 79% 30.11 in 10.0 mi Calm Calm - N/A   Clear
1:55 AM 20.3 °F - 13.8 °F 76% 30.11 in 10.0 mi Calm Calm - N/A   Scattered Clouds
2:35 AM 17.2 °F - 12.6 °F 82% 30.10 in 10.0 mi Calm Calm - N/A   Mostly Cloudy
2:55 AM 19.9 °F - 13.8 °F 77% 30.10 in 10.0 mi Calm Calm - N/A   Overcast
3:15 AM 21.9 °F - 14.9 °F 74% 30.09 in 10.0 mi Calm Calm - N/A   Overcast
3:35 AM 22.8 °F - 15.6 °F 74% 30.08 in 10.0 mi Calm Calm - N/A   Overcast
3:55 AM 24.6 °F - 16.3 °F 71% 30.07 in 10.0 mi Calm Calm - N/A   Overcast
4:15 AM 24.6 °F - 16.7 °F 72% 30.07 in 10.0 mi Calm Calm - N/A   Overcast
4:35 AM 25.0 °F - 16.7 °F 71% 30.08 in 10.0 mi Calm Calm - N/A   Overcast
4:55 AM 25.5 °F - 16.7 °F 69% 30.09 in 10.0 mi Calm Calm - N/A   Overcast
5:15 AM 26.6 °F - 18.1 °F 70% 30.07 in 10.0 mi Calm Calm - N/A   Overcast
5:35 AM 26.4 °F - 18.5 °F 72% 30.07 in 10.0 mi Calm Calm - N/A   Overcast
5:55 AM 30.4 °F - 17.6 °F 59% 30.06 in 10.0 mi Calm Calm - N/A   Overcast
6:15 AM 28.2 °F - 17.2 °F 63% 30.05 in 10.0 mi Calm Calm - N/A   Mostly Cloudy
6:35 AM 26.6 °F - 16.9 °F 67% 30.05 in 10.0 mi Calm Calm - N/A   Clear
6:55 AM 27.3 °F - 17.4 °F 66% 30.05 in 10.0 mi Calm Calm - N/A   Clear
7:15 AM 25.3 °F - 16.7 °F 70% 30.05 in 10.0 mi Calm Calm - N/A   Clear
7:35 AM 24.8 °F - 16.9 °F 72% 30.06 in 10.0 mi Calm Calm - N/A   Clear
7:55 AM 24.3 °F - 16.9 °F 73% 30.05 in 10.0 mi Calm Calm - N/A   Clear
8:15 AM 25.0 °F - 18.0 °F 75% 30.06 in 10.0 mi Calm Calm - N/A   Scattered Clouds
8:35 AM 27.7 °F - 18.7 °F 69% 30.05 in 10.0 mi Calm Calm - N/A   Mostly Cloudy
8:55 AM 29.5 °F - 18.9 °F 65% 30.05 in 10.0 mi Calm Calm - N/A   Scattered Clouds
9:15 AM 31.3 °F - 19.0 °F 61% 30.04 in 10.0 mi Calm Calm - N/A   Mostly Cloudy
9:35 AM 32.0 °F - 19.4 °F 60% 30.04 in 10.0 mi Calm Calm - N/A   Overcast
10:15 AM 35.1 °F - 18.7 °F 51% 30.03 in 10.0 mi Calm Calm - N/A   Overcast
10:35 AM 36.1 °F - 18.5 °F 49% 30.02 in 10.0 mi Calm Calm - N/A   Overcast
10:55 AM 38.5 °F 32.7 °F 18.9 °F 45% 30.00 in 10.0 mi South 8.1 mph - N/A   Overcast
11:15 AM 40.1 °F 34.1 °F 18.5 °F 42% 29.99 in 10.0 mi South 9.2 mph - N/A   Mostly Cloudy
11:35 AM 40.8 °F 36.2 °F 18.7 °F 41% 29.97 in 10.0 mi SSW 6.9 mph - N/A   Mostly Cloudy
11:55 AM 41.5 °F 34.6 °F 18.3 °F 39% 29.95 in 10.0 mi South 12.7 mph - N/A   Scattered Clouds
12:15 PM 41.9 °F 36.9 °F 17.6 °F 38% 29.94 in 10.0 mi South 8.1 mph - N/A   Clear
12:35 PM 42.8 °F 39.3 °F 18.3 °F 37% 29.92 in 10.0 mi South 5.8 mph 17.3 mph N/A   Mostly Cloudy
12:55 PM 42.4 °F 35.7 °F 17.1 °F 36% 29.90 in 10.0 mi South 12.7 mph 20.7 mph N/A   Mostly Cloudy
1:15 PM 42.4 °F 36.5 °F 17.2 °F 36% 29.88 in 10.0 mi South 10.4 mph 18.4 mph N/A   Mostly Cloudy
1:35 PM 43.0 °F 36.0 °F 16.5 °F 34% 29.88 in 10.0 mi South 13.8 mph 19.6 mph N/A   Overcast
1:55 PM 42.8 °F 38.0 °F 17.4 °F 36% 29.87 in 10.0 mi SSE 8.1 mph 17.3 mph N/A   Overcast
2:15 PM 44.4 °F 36.1 °F 15.6 °F 31% 29.85 in 10.0 mi SSW 20.7 mph 25.3 mph N/A   Mostly Cloudy
2:35 PM 43.5 °F 37.5 °F 15.4 °F 32% 29.84 in 10.0 mi SSW 11.5 mph - N/A   Mostly Cloudy
2:55 PM 44.4 °F 37.2 °F 14.7 °F 30% 29.84 in 10.0 mi South 16.1 mph 21.9 mph N/A   Overcast
3:15 PM 44.2 °F 36.2 °F 15.3 °F 31% 29.83 in 10.0 mi South 19.6 mph 27.6 mph N/A   Mostly Cloudy
3:35 PM 43.0 °F 34.2 °F 15.6 °F 33% 29.82 in 10.0 mi South 20.7 mph 24.2 mph N/A   Overcast
3:55 PM 44.1 °F 35.4 °F 15.6 °F 32% 29.81 in 10.0 mi SSW 21.9 mph 25.3 mph N/A   Overcast
4:15 PM 43.3 °F 36.8 °F 15.8 °F 33% 29.80 in 10.0 mi South 12.7 mph 18.4 mph N/A   Scattered Clouds
4:35 PM 43.7 °F 36.9 °F 16.5 °F 34% 29.80 in 10.0 mi South 13.8 mph - N/A   Scattered Clouds
4:55 PM 42.6 °F 38.4 °F 18.3 °F 38% 29.80 in 10.0 mi South 6.9 mph - N/A   Scattered Clouds
5:15 PM 42.4 °F 35.7 °F 17.4 °F 37% 29.80 in 10.0 mi South 12.7 mph 19.6 mph N/A   Mostly Cloudy
5:35 PM 41.5 °F 35.9 °F 18.5 °F 40% 29.79 in 10.0 mi South 9.2 mph - N/A   Mostly Cloudy
5:55 PM 41.0 °F 35.2 °F 18.5 °F 40% 29.78 in 10.0 mi South 9.2 mph - N/A   Overcast
6:15 PM 39.2 °F 32.5 °F 20.3 °F 47% 29.79 in 10.0 mi SSW 10.4 mph 16.1 mph N/A   Scattered Clouds
6:35 PM 39.0 °F 31.0 °F 19.8 °F 46% 29.79 in 10.0 mi SSW 13.8 mph 18.4 mph N/A   Clear
6:55 PM 38.3 °F 29.3 °F 20.1 °F 48% 29.80 in 10.0 mi SSW 16.1 mph 19.6 mph N/A   Clear
7:15 PM 38.5 °F - 18.7 °F 45% 29.80 in 10.0 mi Calm Calm - N/A   Clear
7:35 PM 36.1 °F - 19.0 °F 50% 29.80 in 10.0 mi Calm Calm - N/A   Clear
7:55 PM 34.3 °F - 19.9 °F 56% 29.80 in 10.0 mi Calm Calm - N/A   Scattered Clouds
8:15 PM 31.3 °F - 21.0 °F 66% 29.80 in 10.0 mi Calm Calm - N/A   Mostly Cloudy
8:35 PM 30.9 °F - 21.0 °F 67% 29.80 in 10.0 mi Calm Calm - N/A   Mostly Cloudy
8:55 PM 32.0 °F - 20.3 °F 62% 29.79 in 10.0 mi Calm Calm - N/A   Scattered Clouds
9:15 PM 31.5 °F 28.1 °F 19.8 °F 62% 29.79 in 10.0 mi South 3.5 mph - N/A   Mostly Cloudy
9:35 PM 34.0 °F 29.8 °F 20.3 °F 57% 29.79 in 10.0 mi South 4.6 mph - N/A   Scattered Clouds
9:55 PM 35.2 °F 32.4 °F 19.8 °F 53% 29.79 in 10.0 mi SSE 3.5 mph - N/A   Clear
10:15 PM 34.3 °F - 19.2 °F 54% 29.78 in 10.0 mi Calm Calm - N/A   Clear
10:35 PM 26.8 °F - 18.7 °F 72% 29.78 in 10.0 mi Calm Calm - N/A   Scattered Clouds
10:55 PM 26.6 °F - 18.9 °F 73% 29.78 in 10.0 mi Calm Calm - N/A   Scattered Clouds
11:15 PM 25.0 °F - 18.5 °F 76% 29.77 in 10.0 mi Calm Calm - N/A   Clear
11:35 PM 24.4 °F - 18.5 °F 78% 29.76 in 10.0 mi Calm Calm - N/A   Clear
11:55 PM 23.0 °F - 17.6 °F 80% 29.76 in 10.0 mi Calm Calm - N/A   Clear